Погода в Горине

Погода в Горине : погода сейчас, прогноз погоды и архив. Всё, что Вы хотите узнать о погоде в Горине!

Хотите узнать прогноз погоды в Горине? Тогда Вам сюда: Погода в Горине

Поиск расширенной информации на нашем сайте:

Другие новости

Новости СМИ2

Главная страница сайта

Новости сайта

03.07.2017

Напоминаем, что на нашем специализированном сайте Метеоцентр.Азия вы можете получить высокодетализированные автоматические прогнозы погоды по пунктам России, СНГ и мира в авиационном формате (включающие направление и скорость ветра, видимость, явления погоды, количество и форму облачности, нижнюю и верхнюю границу облачности).

Рекомендуем: обратите внимание у метро Октябрьская описание помещений на сайте

Погода в Горине - сегодня

Время (UTC), дата Ветер
(°,м/с) 
Видим.   Явления Облачность Т
(°С)
Тd
(°С)
f(%) Тe
(°С)
Pmin
(гПа)
dP
(гПа)
Po
(мм)
O2
(г/м3)
Тmin Tmax R s Состояние
почвы
06 20.02.18 080 (В) 20000 м    8/0 верхняя 
[Ci fib]
-13 -21.9 47 -13  1009.2  -0.5  748  318           
09 20.02.18 тихо ()   20000 м    ясно 
-17.8 -23.2 63 -18  1010.5  1.1  749  324    -12.4       
12 20.02.18 210 (ЮЗ) 20000 м    ясно 
-19.3 -23.7 68 -20  1011  0.4  749  326           
15 20.02.18 тихо ()   20000 м    ясно 
-24.3 -26.7 80 -24  1011.3  749  333           
18 20.02.18 тихо ()   20000 м    ясно 
-25.9 -29 75 -26  1011.7  0.3  749  335           
00 21.02.18 070 (В) 20000 м    3/0 верхняя 
[Ci fib]
-23.4 -26.4 76 -24  1012.5  0.7  750  332  -29.7         
03 21.02.18 080 (В) 20000 м    6/0 верхняя 
[Ci fib]
-14.4 -23.4 46 -17  1011.5  -0.6  749  320           
06 21.02.18 140 (ЮВ) 20000 м    9/0 средняя, верхняя 
[Ac trans|Ci fib]
-13.6 -23.5 43 -16  1011  -0.4  749  319           
09 21.02.18 140 (ЮВ) 20000 м    ясно 
-19.1 -25.4 57 -19  1012.6  1.4  750  327    -12.7       
12 21.02.18 тихо ()   20000 м    ясно 
-24.4 -28 72 -24  1014  1.1  751  334           
15 21.02.18 тихо ()   20000 м    ясно 
-27.4 -30.3 76 -27  1014.4  0.2  751  338           
18 21.02.18 тихо ()   20000 м    ясно 
-30.2 -33.6 72 -30  1014.9  0.4  751  342           
00 22.02.18 тихо ()   20000 м    ясно 
-27.7 -31.3 71 -28  1016.9  1.5  753  340  -33.2         
03 22.02.18 030 (СВ) 20000 м    ясно 
-17.9 -26.2 48 -20  1016  -0.5  753  326           
06 22.02.18 360 (С) 20000 м    ясно 
-13.8 -25.1 38 -14  1014.9  -0.8  752  321           
09 22.02.18 тихо ()   20000 м    ясно 
-20.5 -26.9 57 -21  1016.8  1.5  753  330    -13.4       
12 22.02.18 290 (З) 20000 м    10/0 верхняя 
[Ci fib]
-20.1 -26.4 57 -20  1018.1  1.3  754  330           
15 22.02.18 тихо ()   20000 м    ясно 
-26.4 -30.3 69 -26  1019.4  0.9  755  339           
18 22.02.18 тихо ()   20000 м    ясно 
-28.9 -32 74 -29  1020.3  0.8  755  342           
00 23.02.18 360 (С) 20000 м    ясно 
-26.4 -30.3 69 -27  1023.4  1.8  758  340  -32.5         
03 23.02.18 320 (СЗ) 20000 м    ясно 
-17 -25.7 47 -19  1022.9  758  327           
06 23.02.18 300 (СЗ) 20000 м    ясно 
-14.4 -25.6 38 -17  1022.3  -0.4  758  324           
09 23.02.18 290 (З) 20000 м    ясно 
-18.2 -26.6 48 -21  1023.2  0.7  758  329    -14.2       
12 23.02.18 тихо ()   20000 м    ясно 
-24 -28.8 64 -24  1024.8  1.3  759  337           
15 23.02.18 тихо ()   20000 м    ясно 
-29.2 -32.5 73 -29  1025.7  0.6  759  345           
Время (UTC), дата Ветер
(°,м/с) 
Видим.   Явления Облачность Т
(°С)
Тd
(°С)
f(%) Тe
(°С)
Pmin
(гПа)
dP
(гПа)
Po
(мм)
O2
(г/м3)
Тmin Tmax R s Состояние
почвы

Для получения пояснительной информации подведите курсор к названию столбца.

ПОГОДА в Горине - архив

Всё, что Вы хотите узнать о погоде в Горине - удобно и подробно!

Выберите нужную дату (начиная с 1 января 2015* года) и нажмите кнопку "Найти".
Будут отображены архивные сводки погоды по пункту Горин, начиная с указанной даты.


Отображать данные в формате CSV (для использования в таблицах Excel)


Внимание! Наш архив погоды предназначен исключительно для личного некоммерческого использования в познавательных целях. Если Вам необходимы официальные справки о состоянии погоды (для производственных, юридических, коммерческих и т.п. целей), обращайтесь в органы Росгидромета.

*Примечание: данная дата относится к архиву по метеостанциям СССР (Россия, СНГ, Балтия).
Архив по метеостанциям Зарубежной Европы и Азии (кроме Китая) хранится 10 дней, по другим регионам земного шара (Китай, Африка, Америка, Австралия, Океания) - 1 день.

Горин - район местоположения метеостанции


Название, широта, долгота, высота метеостанции:
Горин 51.2°ш. 136.8°д. 92 м над ур. моря [Российская Федерация]

Дополнительная информация

В oтличие oт бoльшинства пoгoдных сайтoв мы публикуем пoдрoбную метеoинфoрмацию в детальнoм прoфессиoнальнoм фoрмате.

Характеристики температуры и влажнoсти вoздуха измеряются на высoте 2 м в тени вдали oт зданий и деревьев.
Скoрoсть ветра измеряется на высoте 10 м (на урoвне рoста челoвека скoрoсть ветра ниже в 1.5-2 раза). Если метеoстанция нахoдится в гoрoде или в лесу, тo скoрoсть ветра занижена на 2-4 м/с пo сравнению с oткрытым местoм. Скoрoсть ветра над акватoриями крупных рек и oзёр, а также на вершинах хoлмoв на 2-5 м/с выше, чем в oбычных услoвиях.
Атмoсфернoе давление в разных тoчках местнoсти мoжет значительнo oтличаться oт давления на метеoстанции, в зависимoсти oт услoвий рельефа (при пoдъёме на 10 м давление пoнижается примернo на 1 мм рт.ст.).